Ellsworth AFB, SD

8:34 AM MST on February 20, 2017 (GMT -0700)
Ellsworth Air Force Base

Weather History for KRCA - February, 2014

Change the Weather History Date:

Friday, February 21, 2014

  Actual Average Record
Temperature  
Mean Temperature 34 °F -  
Max Temperature 44 °F 38 °F 66 °F (2000)
Min Temperature 25 °F 18 °F -6 °F (2011)
Degree Days  
Heating Degree Days 30    
Moisture  
Dew Point 20 °F    
Average Humidity 62    
Maximum Humidity 93    
Minimum Humidity 27    
Precipitation  
Precipitation 0.00 in - - ()
Sea Level Pressure  
Sea Level Pressure 29.80 in    
Wind  
Wind Speed 14 mph (NW)    
Max Wind Speed 29 mph    
Max Gust Speed 36 mph    
Visibility 10 miles    
Events Snow    
Averages and records for this station are not official NWS values.
T = Trace of Precipitation, MM = Missing Value Source: NWS Daily Summary

Daily Weather History Graph

Daily Weather History Graph

Search for Another Location

Airport or City:

Trip Planner

Search our weather history database for the weather conditions in past years. The results will help you decide how hot, cold, wet, or windy it might be!

Date:

Astronomy

Feb. 21, 2014 Rise Set
Actual Time 6:42 AM MST 5:30 PM MST
Civil Twilight 6:13 AM MST 5:59 PM MST
Nautical Twilight 5:39 AM MST 6:33 PM MST
Astronomical Twilight 5:06 AM MST 7:06 PM MST
Moon No Moon Rise 9:53 AM MST (2/21)
Length of Visible Light 11h 46m
Length of Day
10h 47m
Waning Gibbous, 60% of the Moon is Illuminated
Feb 21
Waning Gibbous
Feb 22
Last Quarter
Mar 1
New
Mar 8
First Quarter
Mar 16
Full

Hourly Weather History & Observations

Time (MST) Temp. Windchill Dew Point Humidity Pressure Visibility Wind Dir Wind Speed Gust Speed Precip Events Conditions
12:57 AM 28.0 °F 20.8 °F 14.5 °F 57% 29.76 in 10.0 mi West 6.9 mph - N/A   Mostly Cloudy
1:58 AM 28.2 °F 22.0 °F 19.4 °F 70% 29.75 in 10.0 mi NW 5.8 mph - N/A   Mostly Cloudy
2:58 AM 27.0 °F 18.7 °F 20.5 °F 77% 29.75 in 10.0 mi NNW 8.1 mph - N/A   Overcast
3:58 AM 25.0 °F 18.1 °F 14.7 °F 65% 29.77 in 10.0 mi WSW 5.8 mph - N/A   Partly Cloudy
4:58 AM 31.3 °F 19.9 °F 21.0 °F 66% 29.77 in 10.0 mi NW 17.3 mph - N/A   Mostly Cloudy
5:58 AM 32.2 °F 21.1 °F 19.6 °F 60% 29.79 in 10.0 mi NW 17.3 mph - N/A   Mostly Cloudy
6:58 AM 32.4 °F 20.9 °F 18.0 °F 55% 29.80 in 10.0 mi NW 18.4 mph - N/A   Overcast
7:58 AM 35.1 °F 23.8 °F 19.2 °F 53% 29.80 in 10.0 mi NW 20.7 mph 27.6 mph N/A   Clear
8:58 AM 37.4 °F 25.6 °F 17.4 °F 44% 29.78 in 10.0 mi NW 26.5 mph 32.2 mph N/A   Clear
9:58 AM 39.6 °F 29.2 °F 16.3 °F 39% 29.79 in 10.0 mi NNW 23.0 mph - N/A   Mostly Cloudy
10:58 AM 40.3 °F 29.1 °F 14.9 °F 36% 29.80 in 10.0 mi NNW 28.8 mph 35.7 mph N/A   Mostly Cloudy
11:58 AM 40.3 °F 31.3 °F 16.7 °F 39% 29.78 in 10.0 mi WNW 18.4 mph 27.6 mph N/A   Scattered Clouds
12:58 PM 40.8 °F 32.0 °F 14.2 °F 34% 29.75 in 10.0 mi NW 18.4 mph 29.9 mph N/A   Mostly Cloudy
1:46 PM 44.6 °F 36.4 °F 12.2 °F 27% 29.68 in 10.0 mi West 20.7 mph - N/A   Mostly Cloudy
1:58 PM 42.4 °F 34.4 °F 11.3 °F 28% 29.75 in 10.0 mi NW 17.3 mph 31.1 mph N/A   Mostly Cloudy
2:58 PM 41.9 °F 33.1 °F 14.9 °F 34% 29.76 in 10.0 mi NW 19.6 mph 24.2 mph N/A   Mostly Cloudy
3:58 PM 36.1 °F 27.3 °F 22.5 °F 58% 29.80 in 10.0 mi NNW 13.8 mph 20.7 mph N/A   Partly Cloudy
4:58 PM 36.5 °F 29.7 °F 17.8 °F 47% 29.81 in 10.0 mi NW 9.2 mph - N/A   Mostly Cloudy
5:58 PM 33.3 °F 24.6 °F 21.4 °F 62% 29.83 in 10.0 mi NNE 11.5 mph - N/A   Partly Cloudy
6:37 PM 32.0 °F 19.2 °F 23.0 °F 69% 29.76 in 10.0 mi North 23.0 mph 28.8 mph N/A   Mostly Cloudy
6:57 PM 30.2 °F 17.8 °F 26.6 °F 86% 29.78 in 10.0 mi North 19.6 mph - N/A   Overcast
6:58 PM 30.0 °F 17.9 °F 27.1 °F 89% 29.87 in 10.0 mi North 18.4 mph - 0.00 in   Overcast
7:05 PM 30.2 °F 17.4 °F 28.4 °F 93% 29.78 in 9.0 mi North 20.7 mph 27.6 mph N/A Snow Light Snow
7:15 PM 30.2 °F 17.4 °F 26.6 °F 86% 29.79 in 8.0 mi NNW 20.7 mph 28.8 mph N/A Snow Light Snow
7:29 PM 30.2 °F 18.9 °F 26.6 °F 86% 29.79 in 10.0 mi NW 16.1 mph - N/A   Overcast
7:58 PM 29.3 °F 17.0 °F 23.7 °F 80% 29.91 in 10.0 mi NNW 18.4 mph - 0.00 in   Scattered Clouds
8:58 PM 28.0 °F 16.1 °F 22.6 °F 80% 29.91 in 10.0 mi NW 16.1 mph - N/A   Partly Cloudy
9:58 PM 27.9 °F 15.9 °F 22.3 °F 80% 29.92 in 10.0 mi NNW 16.1 mph - N/A   Clear
10:58 PM 26.8 °F 16.5 °F 22.6 °F 84% 29.92 in 10.0 mi North 11.5 mph - N/A   Partly Cloudy
11:58 PM 26.1 °F 14.0 °F 20.7 °F 80% 29.94 in 10.0 mi North 15.0 mph - N/A   Scattered Clouds